FLOCK 3P-59

Last updated on Wed Feb 14 2018 16:20:32 GMT+0000 (Coordinated Universal Time)

1 42022U 17008CC 18045.16862254 .00002276 00000-0 96780-4 0 9999 2 42022 97.4661 110.7184 0009523 73.1000 287.1281 15.24034218 54230

Satellite not in orbit

FLOCK 3P-59